When you browse on this site, cookies collect data to enhance your experience and personalize the content and advertising you see.
Visit our Privacy Policy to learn more. By continuing to use the site, you agree to this use of cookies and data.
  • In Czech Republic
  • List of Countries
  • For 7 days
  • Water Temperature
  • Satellite Maps
  • Weather Map
  • Weather Widgets
  • user-avatar
    Login

    Hourly Weather Brilevka

    Today, 24 May, Friday

    Time Temperature Precipitation Wind Pressure Humidity
    00:00 +16°C° 0 mm 1 mps 742 mmHg 79%
    01:00 +16°C° 0 mm 1 mps 742 mmHg 82%
    02:00 +15°C° 0 mm 0 mps 742 mmHg 81%
    03:00 +16°C° 0 mm 1 mps 743 mmHg 83%
    04:00 +16°C° 0 mm 1 mps 743 mmHg 84%
    05:00 +16°C° 0 mm 1 mps 743 mmHg 86%
    06:00 +19°C° 0.1 mm 1 mps 743 mmHg 79%
    07:00 +21°C° 0.1 mm 1 mps 743 mmHg 73%
    08:00 +23°C° 0 mm 1 mps 743 mmHg 67%
    09:00 +24°C° 1.1 mm 1 mps 743 mmHg 62%
    10:00 +25°C° 1.1 mm 1 mps 743 mmHg 57%
    11:00 +26°C° 1.1 mm 1 mps 743 mmHg 52%
    12:00 +26°C° 0 mm 1 mps 743 mmHg 49%
    13:00 +27°C° 0 mm 1 mps 743 mmHg 47%
    14:00 +28°C° 0 mm 1 mps 743 mmHg 44%
    15:00 +26°C° 0.3 mm 1 mps 743 mmHg 52%
    16:00 +25°C° 0.3 mm 1 mps 743 mmHg 60%
    17:00 +24°C° 0.3 mm 1 mps 742 mmHg 68%
    18:00 +23°C° 0.4 mm 1 mps 742 mmHg 73%
    19:00 +21°C° 0.4 mm 1 mps 742 mmHg 78%
    20:00 +20°C° 0.4 mm 1 mps 742 mmHg 83%
    21:00 +19°C° 0 mm 1 mps 742 mmHg 84%
    22:00 +18°C° 0 mm 1 mps 742 mmHg 86%
    23:00 +18°C° 0 mm 1 mps 742 mmHg 88%

    Tomorrow, 25 May, Saturday

    Time Temperature Precipitation Wind Pressure Humidity
    00:00 +16°C° 0 mm 1 mps 742 mmHg 89%
    01:00 +16°C° 0 mm 1 mps 742 mmHg 91%
    02:00 +16°C° 0 mm 1 mps 742 mmHg 92%
    03:00 +16°C° 0 mm 1 mps 742 mmHg 92%
    04:00 +16°C° 0 mm 1 mps 741 mmHg 92%
    05:00 +16°C° 0 mm 1 mps 741 mmHg 92%
    06:00 +18°C° 0.3 mm 1 mps 741 mmHg 87%
    07:00 +20°C° 0.3 mm 1 mps 741 mmHg 83%
    08:00 +20°C° 0.3 mm 2 mps 741 mmHg 78%
    09:00 +21°C° 0.9 mm 2 mps 741 mmHg 74%
    10:00 +23°C° 0.9 mm 2 mps 741 mmHg 69%
    11:00 +24°C° 0.9 mm 3 mps 741 mmHg 65%
    12:00 +24°C° 0.5 mm 3 mps 741 mmHg 62%
    13:00 +25°C° 0.5 mm 3 mps 741 mmHg 60%
    14:00 +25°C° 0.5 mm 3 mps 741 mmHg 57%
    15:00 +24°C° 0.7 mm 3 mps 741 mmHg 63%
    16:00 +22°C° 0.7 mm 3 mps 741 mmHg 68%
    17:00 +22°C° 0.7 mm 3 mps 740 mmHg 74%
    18:00 +20°C° 0 mm 3 mps 740 mmHg 78%
    19:00 +19°C° 0 mm 2 mps 741 mmHg 81%
    20:00 +17°C° 0 mm 2 mps 741 mmHg 85%
    21:00 +16°C° 0 mm 2 mps 741 mmHg 86%
    22:00 +15°C° 0 mm 2 mps 741 mmHg 87%
    23:00 +14°C° 0 mm 2 mps 741 mmHg 88%

    Day after tomorrow, 26 May, Sunday

    Time Temperature Precipitation Wind Pressure Humidity
    00:00 +14°C° 0 mm 2 mps 741 mmHg 90%
    01:00 +13°C° 0 mm 2 mps 742 mmHg 92%
    02:00 +12°C° 0 mm 2 mps 742 mmHg 95%
    03:00 +12°C° 0 mm 2 mps 742 mmHg 94%
    04:00 +12°C° 0 mm 2 mps 742 mmHg 94%
    05:00 +12°C° 0 mm 2 mps 742 mmHg 93%
    06:00 +13°C° 0 mm 2 mps 743 mmHg 84%
    07:00 +15°C° 0 mm 2 mps 743 mmHg 76%
    08:00 +16°C° 0 mm 2 mps 743 mmHg 67%
    09:00 +17°C° 0 mm 3 mps 743 mmHg 60%
    10:00 +18°C° 0 mm 3 mps 743 mmHg 54%
    11:00 +19°C° 0 mm 4 mps 743 mmHg 47%
    12:00 +20°C° 0 mm 4 mps 743 mmHg 46%
    13:00 +20°C° 0 mm 5 mps 743 mmHg 45%
    14:00 +21°C° 0 mm 5 mps 743 mmHg 45%
    15:00 +21°C° 0 mm 5 mps 743 mmHg 48%
    16:00 +20°C° 0 mm 5 mps 742 mmHg 50%
    17:00 +20°C° 0 mm 5 mps 742 mmHg 53%
    18:00 +18°C° 0 mm 4 mps 742 mmHg 60%
    19:00 +17°C° 0 mm 3 mps 742 mmHg 67%
    20:00 +15°C° 0 mm 2 mps 742 mmHg 75%
    21:00 +15°C° 0 mm 2 mps 742 mmHg 76%
    22:00 +13°C° 0 mm 3 mps 743 mmHg 78%
    23:00 +13°C° 0 mm 3 mps 743 mmHg 79%

    27 May, Monday

    Time Temperature Precipitation Wind Pressure Humidity
    00:00 +12°C° 0 mm 3 mps 743 mmHg 84%
    01:00 +12°C° 0 mm 2 mps 743 mmHg 88%
    02:00 +10°C° 0 mm 2 mps 743 mmHg 92%
    03:00 +10°C° 0 mm 2 mps 744 mmHg 92%
    04:00 +10°C° 0 mm 2 mps 744 mmHg 93%
    05:00 +10°C° 0 mm 2 mps 744 mmHg 93%
    06:00 +13°C° 0 mm 2 mps 745 mmHg 82%
    07:00 +15°C° 0 mm 2 mps 745 mmHg 71%
    08:00 +17°C° 0 mm 3 mps 745 mmHg 60%
    09:00 +18°C° 0 mm 3 mps 746 mmHg 57%
    10:00 +19°C° 0 mm 4 mps 746 mmHg 54%
    11:00 +21°C° 0 mm 4 mps 746 mmHg 50%
    12:00 +21°C° 0 mm 4 mps 746 mmHg 54%
    13:00 +20°C° 0 mm 3 mps 746 mmHg 57%
    14:00 +20°C° 0 mm 3 mps 745 mmHg 61%
    15:00 +21°C° 0 mm 3 mps 745 mmHg 58%
    16:00 +22°C° 0 mm 3 mps 745 mmHg 55%
    17:00 +24°C° 0 mm 3 mps 745 mmHg 52%
    18:00 +21°C° 0 mm 3 mps 745 mmHg 59%
    19:00 +20°C° 0 mm 2 mps 745 mmHg 66%
    20:00 +18°C° 0 mm 2 mps 745 mmHg 74%
    21:00 +18°C° 0 mm 2 mps 745 mmHg 76%
    22:00 +17°C° 0 mm 2 mps 745 mmHg 78%
    23:00 +16°C° 0 mm 2 mps 745 mmHg 80%

    28 May, Tuesday

    Time Temperature Precipitation Wind Pressure Humidity
    00:00 +16°C° 0 mm 2 mps 745 mmHg 84%
    01:00 +16°C° 0 mm 2 mps 745 mmHg 87%
    02:00 +16°C° 0 mm 2 mps 745 mmHg 91%
    03:00 +16°C° 0 mm 2 mps 745 mmHg 91%
    04:00 +16°C° 0 mm 2 mps 745 mmHg 92%
    05:00 +17°C° 0 mm 2 mps 745 mmHg 92%
    06:00 +18°C° 0 mm 2 mps 745 mmHg 86%
    07:00 +20°C° 0 mm 2 mps 746 mmHg 80%
    08:00 +23°C° 0 mm 2 mps 746 mmHg 74%
    09:00 +24°C° 0.4 mm 3 mps 746 mmHg 72%
    10:00 +25°C° 0.4 mm 3 mps 746 mmHg 69%
    11:00 +26°C° 0.4 mm 3 mps 745 mmHg 66%
    12:00 +26°C° 0.9 mm 3 mps 745 mmHg 67%
    13:00 +26°C° 0.9 mm 3 mps 745 mmHg 68%
    14:00 +26°C° 0.9 mm 3 mps 745 mmHg 68%
    15:00 +27°C° 0 mm 4 mps 744 mmHg 62%
    16:00 +27°C° 0 mm 5 mps 744 mmHg 56%
    17:00 +27°C° 0 mm 5 mps 744 mmHg 50%
    18:00 +26°C° 0 mm 5 mps 744 mmHg 57%
    19:00 +23°C° 0 mm 4 mps 744 mmHg 63%
    20:00 +22°C° 0 mm 4 mps 744 mmHg 70%
    21:00 +21°C° 0 mm 4 mps 744 mmHg 71%
    22:00 +21°C° 0 mm 4 mps 744 mmHg 72%
    23:00 +21°C° 0 mm 4 mps 744 mmHg 73%

    29 May, Wednesday

    Time Temperature Precipitation Wind Pressure Humidity
    00:00 +20°C° 0 mm 4 mps 744 mmHg 77%
    01:00 +20°C° 0 mm 4 mps 744 mmHg 82%
    02:00 +19°C° 0 mm 4 mps 743 mmHg 86%
    03:00 +19°C° 0 mm 4 mps 743 mmHg 84%
    04:00 +19°C° 0 mm 5 mps 743 mmHg 81%
    05:00 +17°C° 0 mm 5 mps 743 mmHg 79%
    06:00 +19°C° 0.1 mm 5 mps 743 mmHg 76%
    07:00 +20°C° 0.1 mm 5 mps 743 mmHg 73%
    08:00 +20°C° 0.1 mm 5 mps 743 mmHg 71%
    09:00 +22°C° 0.2 mm 5 mps 743 mmHg 68%
    10:00 +23°C° 0.2 mm 6 mps 743 mmHg 65%
    11:00 +24°C° 0.2 mm 6 mps 743 mmHg 62%
    12:00 +26°C° 0.2 mm 6 mps 743 mmHg 61%
    13:00 +27°C° 0.2 mm 6 mps 743 mmHg 59%
    14:00 +28°C° 0.2 mm 5 mps 743 mmHg 57%
    15:00 +27°C° 2.1 mm 4 mps 743 mmHg 64%
    16:00 +26°C° 2.1 mm 4 mps 743 mmHg 71%
    17:00 +25°C° 2.1 mm 3 mps 743 mmHg 77%
    18:00 +24°C° 0.5 mm 3 mps 743 mmHg 81%
    19:00 +23°C° 0.5 mm 2 mps 743 mmHg 84%
    20:00 +20°C° 0.5 mm 2 mps 743 mmHg 87%
    21:00 +20°C° 0 mm 2 mps 744 mmHg 89%
    22:00 +19°C° 0 mm 2 mps 744 mmHg 90%
    23:00 +18°C° 0 mm 2 mps 744 mmHg 92%
    Show more